Location: Unspecified
(0.0000°N, 0.0000°E)
Time: 20:23:39
(UTC+00:00)

CHEOPS - Pass Details

Date: 09 June 2023
Orbit: 694 x 709 km, 98.2° (Epoch: 24 September)

Event Time Altitude Azimuth Distance (km) Brightness Sun altitude
Rises 18:53:41 0° 342° (NNW) 3,089 ? -12.5°
Reaches altitude 10° 18:56:40 10° 322° (NW) 2,173 ? -13.2°
Maximum altitude 18:59:41 17° 282° (WNW) 1,754 ? -13.9°
Drops below altitude 10° 19:02:42 10° 243° (WSW) 2,175 ? -14.6°
Sets 19:05:43 0° 222° (SW) 3,093 ? -15.3°
